This demonstration page uses our WeatherBlox Daily Observations layout. Learn more.

Left ArrowRight Arrow

39.92423, -83.80882

Hourly Observations for January 12, 2021

Temp ( °F °C ) Dew Point ( °F °C ) Humidity (%) Winds ( mph kmh ) Pressure ( in mb ) Visibility ( mi km ) Precip ( " mm )
12:56 am 00:56 Cloudy 25 -3.9 23 -5 92 92 W 8 13 30.26 1025 8 12.87472 0 0
1:56 am 01:56 Cloudy 24 -4.4 22 -5.6 91 91 WSW 7 11 30.26 1025 8 12.87472 0 0
2:56 am 02:56 Cloudy 24 -4.4 22 -5.6 91 91 WSW 10 17 30.27 1025 8 12.87472 0 0
3:15 am 03:15 Cloudy 25 -4 23 -5 93 93 WSW 8 13 30.29 1026 7 11.26538 0 0
3:56 am 03:56 Cloudy 24 -4.4 23 -5 96 96 W 10 17 30.25 1024 7 11.26538 0 0
4:56 am 04:56 Cloudy 24 -4.4 23 -5 96 96 W 10 17 30.25 1025 7 11.26538 0 0
5:56 am 05:56 Cloudy with Mist and Fog 24 -4.4 23 -5 96 96 W 10 17 30.27 1025 6 9.65604 0 0
6:56 am 06:56 Cloudy 23 -5 22 -5.6 96 96 WSW 13 20 30.27 1025 7 11.26538 0 0
7:56 am 07:56 Cloudy with Mist and Fog 23 -5 22 -5.6 96 96 WSW 13 20 30.27 1025 6 9.65604 0 0
8:56 am 08:56 Cloudy with Mist and Fog 24 -4.4 23 -5 96 96 WSW 9 15 30.26 1025 5 8.0467 0 0
9:56 am 09:56 Cloudy with Mist and Fog 24 -4.4 23 -5 96 96 SW 12 19 30.27 1025 5 8.0467 0 0
10:56 am 10:56 Cloudy with Mist and Fog 25 -3.9 24 -4.4 96 96 SSW 12 19 30.27 1025 5 8.0467 0 0
11:56 am 11:56 Cloudy with Mist and Fog 27 -2.8 24 -4.4 89 89 SSW 12 19 30.23 1024 6 9.65604 0.01 0.254
12:56 pm 12:56 Cloudy 27 -2.8 24 -4.4 89 89 SSW 12 19 30.21 1023 7 11.26538 0.01 0.254
1:56 pm 13:56 Cloudy 29 -1.7 25 -3.9 85 85 SSW 12 19 30.2 1023 7 11.26538 0.01 0.254
2:56 pm 14:56 Cloudy 29 -1.7 25 -3.9 85 85 SSW 9 15 30.19 1022 7 11.26538 0.01 0.254
3:46 pm 15:46 Mostly Sunny 30 -1 27 -3 86 86 SSW 8 13 30.2 1023 7 11.26538 0 0
3:56 pm 15:56 Hazy 30 -1.1 25 -3.9 82 82 SSW 10 17 30.18 1022 6 9.65604 0.01 0.254
4:56 pm 16:56 Sunny 30 -1.1 26 -3.3 85 85 SSW 10 17 30.17 1022 7 11.26538 0 0
5:56 pm 17:56 Clear 29 -1.7 25 -3.9 85 85 SSW 8 13 30.17 1022 7 11.26538 0.01 0.254
6:56 pm 18:56 Clear 27 -2.8 25 -3.9 92 92 S 6 9 30.17 1022 8 12.87472 0 0
7:56 pm 19:56 Clear 27 -2.8 25 -3.9 92 92 S 6 9 30.17 1022 8 12.87472 0 0
8:56 pm 20:56 Clear 27 -2.8 24 -4.4 89 89 SW 7 11 30.17 1022 8 12.87472 0 0
9:56 pm 21:56 Clear 27 -2.8 24 -4.4 89 89 SW 8 13 30.16 1021 8 12.87472 0 0
10:56 pm 22:56 Clear 27 -2.8 25 -3.9 92 92 SW 8 13 30.16 1021 8 12.87472 0 0
11:56 pm 23:56 Clear 27 -2.8 24 -4.4 89 89 SSW 8 13 30.14 1021 8 12.87472 0 0

Powered by AerisWeather